Hourly Data Report for September 06, 2017

All times are specified in Local Standard Time (LST). Add 1 hour to adjust for Daylight Saving Time where and when it is observed.

EDMUNDSTON
NEW BRUNSWICK

47°25'00.000" N
68°19'28.040" W
154.20 m
8101303
71590
ERM

Download Data

Hourly Data (September 2017)
Hourly Data Report for September 6, 2017
Temp Definition
°C
Dew Point Temp Definition
°C
Rel Hum Definition
%
Wind Dir Definition
10's deg

Wind Spd Definition
km/h
Visibility Definition
km
Stn Press Definition
kPa
Hmdx Definition


Wind Chill Definition


Weather Definition


TIME
00:00 14.8 13.9 94 15 4   99.02     LegendNANA
01:00 14.6 13.7 94 14 3   99.10     LegendNANA
02:00 14.6 13.8 94   0   99.10     LegendNANA
03:00 14.5 13.7 95   0   99.09     LegendNANA
04:00 14.3 13.5 95 0 1   99.17     LegendNANA
05:00 14.2 13.5 95   0   99.24     LegendNANA
06:00 13.9 13.1 95   0   99.32     LegendNANA
07:00 13.7 12.9 95 0 1   99.38     LegendNANA
08:00 14.8 14.0 95   0   99.43     LegendNANA
09:00 15.5 14.6 94   0   99.50     LegendNANA
10:00 16.5 14.3 87 10 2   99.55     LegendNANA
11:00 16.3 14.5 89   0   99.57     LegendNANA
12:00 16.4 14.9 91 0 1   99.59     LegendNANA
13:00 16.4 14.8 91 0 1   99.62     LegendNANA
14:00 16.3 14.6 90 14 3   99.66     LegendNANA
15:00 16.3 14.7 91 9 4   99.64     LegendNANA
16:00 16.0 14.5 91 12 4   99.56     LegendNANA
17:00 15.8 14.6 93 14 8   99.56     LegendNANA
18:00 15.4 13.6 89 11 6   99.63     LegendNANA
19:00 14.0 12.8 93 34 3   99.71     LegendNANA
20:00 13.3 12.4 94 14 5   99.66     LegendNANA
21:00 13.2 12.2 94 26 5   99.69     LegendNANA
22:00 13.0 12.0 94 5 2   99.67     LegendNANA
23:00 12.7 11.9 94 34 3   99.62     LegendNANA

Notes on Data Quality.

Legend

  • E = Estimated
  • M = Missing
  • NA = Not Available
  • ‡ = Partner data that is not subject to review by the National Climate Archives
Date modified: